Location: Bagnolo San Vito
(45.0833°N, 10.8833°E)
Time: 00:27:05
(UTC+00:00)

SeaSat 1 - Pass Details

Date: 03 March 2021
Orbit: 744 x 747 km, 108.0° (Epoch: 17 April)

Event Time Altitude Azimuth Distance (km) Brightness Sun altitude
Rises 19:33:38 0° 19° (NNE) 3,201 5.7 -26.4°
Reaches altitude 10° 19:36:09 10° 8° (N) 2,273 5.0 -26.8°
Maximum altitude 19:40:21 29° 310° (NW) 1,352 4.3 -27.5°
Drops below altitude 10° 19:44:33 10° 251° (WSW) 2,264 5.5 -28.2°
Sets 19:47:03 0° 241° (WSW) 3,184 6.2 -28.7°
